#timestamp,LO_Frequency,Hit,StdDev 
1511434815.2,286047000.1,N
1511434835.0,286046998.7,N
1511434835.9,286046998.7,N
1511434855.8,286046999.2,N
1511434875.6,286046999.4,N
1511434895.4,286047000.4,N
1511434915.3,286047000.9,N
1511434935.1,286046998.1,N
1511434955.8,286047002.0,N
1511434975.7,286046999.9,N
1511434995.5,286046998.2,N
1511435015.4,286046999.2,N
1511435035.2,286046998.2,N
1511435055.0,286046998.1,N
1511435055.9,286046998.1,N
1511435075.8,286047000.3,N
1511435095.6,286046998.3,N
1511435115.5,286047000.3,N
1511435135.3,286047004.4,Y
1511435155.1,286047002.1,P
1511435175.9,286047001.0,N
1511435195.7,286047000.5,N
1511435215.5,286047000.5,N
1511435235.4,286047000.4,N
1511435255.2,286047002.7,Y
1511435275.1,286046998.3,P
1511435276.0,286046998.3,N
1511435295.8,286046996.6,P
1511435315.6,286046995.9,N
1511435335.5,286046993.5,Y
1511435355.3,286046999.0,P
1511435375.2,286046999.1,N
1511435395.9,286046998.7,N
1511435415.7,286046997.0,Y
1511435435.6,286046999.6,P
1511435455.4,286046999.3,N
1511435475.2,286047001.2,P
1511435495.1,286046998.3,N
1511435496.0,286046998.3,N
1511435515.8,286046998.6,N
1511435535.7,286046999.1,N
1511435555.5,286046999.2,N
1511435575.3,286046999.4,N
1511435595.2,286046999.3,N
1511435615.0,286046999.5,N
1511435615.9,286046999.5,N
1511435635.8,286046999.2,N
1511435655.6,286046997.5,Y
1511435675.4,286046997.6,P
1511435695.3,286046995.0,P
1511435715.3,286046994.9,N
1511435735.1,286046994.0,Y
1511435755.9,286046997.4,P
1511435775.7,286046999.6,N
1511435795.5,286046999.3,N
1511435815.4,286047000.5,N
1511435835.2,286047003.1,N
1511435855.0,286047002.9,N
1511435855.9,286047002.9,N
1511435875.8,286047006.0,N
1511435895.6,286047005.7,N
1511435915.5,286047004.3,N
1511435935.3,286047005.5,N
1511435955.1,286047003.5,N
1511435975.9,286047003.0,N
1511435995.7,286047004.6,N
1511436015.5,286047005.4,N
1511436035.4,286047003.8,N
1511436055.2,286047003.7,N
1511436075.1,286047001.3,N
1511436076.0,286047001.3,N
1511436095.8,286047000.3,N
1511436115.6,286047000.2,N
1511436135.5,286047000.2,N
1511436155.3,286047001.6,N
1511436175.2,286047004.0,N
1511436195.9,286047004.0,N
1511436215.7,286047005.7,N
1511436235.6,286047005.5,N
1511436255.4,286047003.9,N
1511436275.2,286047001.8,N
1511436295.1,286047001.7,N
1511436296.0,286047001.7,N
1511436315.8,286047000.4,N
1511436335.7,286046999.1,N
1511436355.5,286046997.2,N
1511436375.3,286046996.5,N
1511436395.2,286046996.8,N
1511436415.0,286046998.8,N
1511436415.9,286046998.8,N
1511436435.8,286046998.9,N
1511436455.6,286047000.2,N
1511436475.4,286046998.7,N
1511436495.3,286046996.8,N
1511436515.1,286046997.5,N
1511436535.8,286046993.4,N
1511436555.7,286046996.4,N
1511436575.5,286046996.4,N
1511436595.4,286046997.2,N
1511436615.2,286046997.1,N
1511436635.0,286046997.2,N
1511436635.9,286046997.2,N
1511436655.8,286047000.7,N
1511436675.6,286046999.7,N
1511436695.4,286047004.3,N
1511436715.3,286046999.8,N
1511436735.1,286047000.6,N
1511436755.9,286047011.3,Y
1511436775.7,286047009.7,P
1511436795.5,286047008.2,N
1511436815.4,286047005.2,N
1511436835.2,286047004.2,N
1511436855.1,286047002.2,N
1511436856.0,286047002.2,N
1511436875.8,286047001.5,N
1511436895.6,286047001.9,N
1511436915.5,286047001.6,N
1511436935.3,286047000.2,N
1511436955.1,286047000.4,N
1511436975.9,286047002.4,N
1511436995.7,286047000.0,N
1511437015.6,286047000.2,N
1511437035.4,286046997.2,N
1511437055.2,286046993.4,N
1511437075.1,286046995.2,N
1511437076.0,286046995.2,N
1511437095.8,286046997.2,N
1511437115.7,286046999.2,N
1511437135.5,286046997.5,N
1511437155.3,286046999.1,N
1511437175.2,286046999.2,N
1511437195.0,286046993.9,N
1511437195.9,286046993.9,N
1511437215.7,286046992.3,N
1511437235.6,286046991.6,N
1511437255.4,286046991.7,N
1511437275.3,286046990.4,N
1511437295.1,286046990.4,N
1511437296.0,286046990.4,N
1511437315.8,286046994.3,N
1511437335.7,286046992.6,N
1511437355.5,286046990.8,N
1511437375.3,286046993.0,N
1511437395.2,286046993.0,N
1511437415.0,286046992.7,N
1511437415.9,286046992.7,N
1511437435.8,286046991.6,N
1511437455.6,286046989.0,Y
1511437475.4,286046995.5,P
1511437495.3,286046995.3,P
1511437515.1,286046995.4,P
1511437535.9,286046992.9,Y
1511437555.7,286046994.4,P
1511437575.5,286046992.4,P
1511437595.4,286046995.5,P
1511437615.2,286046996.6,N
1511437635.0,286046997.4,N
1511437636.0,286046997.4,N
1511437655.8,286046998.7,N
1511437675.6,286046999.2,N
1511437695.5,286046998.1,N
1511437715.3,286046999.9,N
1511437735.1,286047001.0,N
1511437755.9,286047000.1,N
1511437775.7,286047000.8,N
1511437795.6,286046998.4,N
1511437815.4,286046999.3,N
1511437835.2,286046998.7,N
1511437855.1,286046996.9,N
1511437856.0,286046996.9,N
1511437875.8,286046998.3,N
1511437895.6,286046996.5,N
1511437915.5,286046999.0,N
1511437935.3,286047001.1,N
1511437955.2,286047001.6,N
1511437975.9,286047003.2,N
1511437995.7,286047001.1,N
1511438015.6,286046999.7,N
1511438035.4,286047002.6,N
1511438055.2,286046999.9,N
1511438075.1,286046998.9,N
1511438076.0,286046998.9,N
1511438095.8,286046997.3,N
1511438115.7,286046997.8,N
1511438135.5,286047000.7,N
1511438155.3,286047000.7,N
1511438175.2,286047002.6,N
1511438195.0,286046999.8,N
1511438195.9,286046999.8,N
1511438215.8,286047001.6,N
1511438235.6,286047003.1,N
1511438255.4,286047004.2,N
1511438275.3,286047003.9,N
1511438295.1,286047002.3,N
1511438315.8,286047002.0,N
1511438335.7,286047002.7,N
1511438355.5,286047004.1,N
1511438375.4,286047011.6,Y
1511438395.2,286047008.1,P
